FW7380 Weather Reports


time (UTC)temp
C
wind
direction
speed
KPH
gust
KPH
rain 1hr
cm
rain 24hr
cm
rain mn
cm
humidity
%
barometer
mb
20240521050031 11 148 0.0 8.0 0.00 0.00 0.00 96 1015.5
20240521044528 11 28 1.6 6.4 0.00 0.00 0.00 96 1015.8
20240521043027 11 0 0.0 3.2 0.00 0.00 0.00 95 1015.9
20240521041525 11 240 0.0 4.8 0.00 0.00 0.00 95 1016.0
20240521040029 11 0 0.0 3.2 0.00 0.00 0.00 95 1016.1
20240521034528 11 0 0.0 6.4 0.00 0.00 0.00 94 1015.9
20240521033029 12 13 1.6 4.8 0.00 0.00 0.00 94 1016.1
20240521031527 12 178 0.0 8.0 0.00 0.00 0.00 94 1016.3
20240521030028 12 6 3.2 9.7 0.00 0.00 0.00 94 1016.3
20240521024530 12 150 0.0 4.8 0.00 0.00 0.00 94 1016.4
20240521023027 12 0 0.0 6.4 0.00 0.00 0.00 93 1016.3
20240521021535 13 354 0.0 3.2 0.00 0.00 0.00 93 1016.3
20240521020027 13 15 0.0 6.4 0.00 0.00 0.00 92 1016.0
20240521014536 13 257 0.0 1.6 0.00 0.00 0.00 91 1016.1
20240521013026 14 0 0.0 6.4 0.00 0.00 0.00 91 1016.2
20240521011538 14 0 0.0 1.6 0.00 0.00 0.00 90 1016.1
20240521010030 15 12 1.6 4.8 0.00 0.00 0.00 89 1015.8
20240521004540 15 0 0.0 1.6 0.00 0.00 0.00 88 1015.7
20240521003026 15 35 0.0 3.2 0.00 0.00 0.00 87 1015.5
20240521001547 16 0 0.0 3.2 0.00 0.00 0.00 85 1015.6
20240521000031 16 0 0.0 3.2 0.00 0.00 0.00 83 1015.6
20240520234534 17 347 0.0 4.8 0.00 0.00 0.00 82 1015.8
20240520233025 17 23 0.0 4.8 0.00 0.00 0.00 80 1015.7
20240520231532 18 205 0.0 9.7 0.00 0.00 0.00 78 1015.7
20240520230030 19 64 1.6 8.0 0.00 0.00 0.00 75 1015.7
20240520224529 20 0 0.0 4.8 0.00 0.00 0.00 74 1015.6
20240520223036 20 136 1.6 6.4 0.00 0.00 0.00 73 1015.8
20240520221530 21 119 1.6 9.7 0.00 0.00 0.00 72 1015.9
20240520220049 21 27 3.2 8.0 0.00 0.00 0.00 72 1016.0
20240520214527 21 104 3.2 9.7 0.00 0.00 0.00 70 1015.8
20240520213029 21 0 1.6 8.0 0.00 0.00 0.00 68 1015.9
20240520211531 21 274 1.6 4.8 0.00 0.00 0.00 70 1016.2
20240520210052 21 30 3.2 8.0 0.00 0.00 0.00 68 1016.3
20240520204544 21 207 1.6 8.0 0.00 0.00 0.00 68 1016.2
20240520203038 21 154 3.2 9.7 0.00 0.00 0.00 68 1016.3
20240520201536 22 356 1.6 4.8 0.00 0.00 0.00 66 1016.5
20240520200037 22 251 0.0 6.4 0.00 0.00 0.00 67 1016.5
20240520194543 22 160 1.6 4.8 0.00 0.00 0.00 68 1016.5
20240520193029 22 356 3.2 8.0 0.00 0.00 0.00 68 1016.7
20240520191532 21 319 0.0 4.8 0.00 0.00 0.00 71 1016.8
20240520190046 21 0 0.0 12.9 0.00 0.00 0.00 70 1016.8
20240520184531 21 0 1.6 8.0 0.00 0.00 0.00 71 1017.0
20240520183026 21 37 1.6 6.4 0.00 0.00 0.00 68 1017.1
20240520181538 21 167 1.6 6.4 0.00 0.00 0.00 70 1017.2
20240520180030 21 234 0.0 6.4 0.00 0.00 0.00 72 1017.2
20240520174533 20 130 1.6 6.4 0.00 0.00 0.00 70 1017.3
20240520173033 20 288 0.0 4.8 0.00 0.00 0.00 73 1017.3
20240520171529 20 222 0.0 4.8 0.00 0.00 0.00 74 1017.5
20240520170026 19 70 3.2 8.0 0.00 0.00 0.00 75 1017.5
20240520164535 18 63 1.6 4.8 0.00 0.00 0.00 77 1017.8
20240520163027 18 0 0.0 1.6 0.00 0.00 0.00 78 1018.0
20240520161536 18 0 0.0 1.6 0.00 0.00 0.00 79 1018.2
20240520160036 17 0 0.0 3.2 0.00 0.00 0.00 79 1018.1
20240520154529 17 238 0.0 3.2 0.00 0.00 0.00 81 1018.2
20240520153026 16 0 0.0 1.6 0.00 0.00 0.00 84 1018.2
20240520151533 16 345 0.0 3.2 0.00 0.00 0.00 84 1018.3
20240520150037 15 0 0.0 6.4 0.00 0.00 0.00 86 1018.2
20240520144535 15 0 0.0 3.2 0.00 0.00 0.00 87 1018.1
20240520143028 14 0 0.0 3.2 0.00 0.00 0.00 89 1017.8
20240520141539 14 210 0.0 3.2 0.00 0.00 0.00 88 1017.9
20240520140028 13 199 0.0 3.2 0.00 0.00 0.00 89 1018.1
20240520134531 13 0 0.0 0.0 0.00 0.00 0.00 90 1018.1
20240520133028 13 247 0.0 1.6 0.00 0.00 0.00 92 1018.2
20240520131532 13 248 0.0 1.6 0.00 0.00 0.00 92 1018.5
20240520130035 13 0 0.0 0.0 0.00 0.00 0.00 93 1018.6
20240520124529 12 0 0.0 1.6 0.00 0.00 0.00 94 1018.3
20240520123027 12 0 0.0 0.0 0.00 0.00 0.00 94 1018.5
20240520121527 12 0 0.0 1.6 0.00 0.00 0.00 95 1018.6
20240520120047 12 0 0.0 0.0 0.00 0.00 0.00 96 1018.6
20240520114527 11 0 0.0 0.0 0.00 0.00 0.00 96 1018.5
20240520113028 11 0 0.0 0.0 0.00 0.00 0.00 97 1018.3
20240520111532 11 0 0.0 0.0 0.00 0.00 0.00 97 1017.9
20240520110036 11 234 0.0 1.6 0.00 0.00 0.00 97 1017.8
20240520104530 11 0 0.0 1.6 0.00 0.00 0.00 98 1018.0
20240520103040 11 0 0.0 1.6 0.00 0.00 0.00 98 1018.0
20240520101534 11 0 0.0 1.6 0.00 0.00 0.00 98 1017.8
20240520100029 11 0 0.0 0.0 0.00 0.00 0.00 98 1017.7
20240520094529 11 0 0.0 0.0 0.00 0.00 0.00 98 1017.8
20240520093026 11 0 0.0 0.0 0.00 0.00 0.00 98 1017.8
20240520091533 11 0 0.0 1.6 0.00 0.00 0.00 98 1017.9
20240520090047 11 0 0.0 0.0 0.00 0.00 0.00 98 1017.9
20240520084525 11 0 0.0 0.0 0.00 0.00 0.00 98 1017.7
20240520083026 11 0 0.0 0.0 0.00 0.00 0.00 98 1017.7
20240520081530 11 0 0.0 0.0 0.00 0.00 0.00 98 1017.7
20240520080035 11 0 0.0 0.0 0.00 0.00 0.00 98 1017.7
20240520074526 11 0 0.0 1.6 0.00 0.00 0.00 97 1017.8
20240520073025 11 0 0.0 0.0 0.00 0.00 0.00 97 1017.6
20240520071529 11 0 0.0 0.0 0.00 0.00 0.00 97 1017.7
20240520070041 11 0 0.0 0.0 0.00 0.00 0.00 97 1017.5
20240520064526 11 0 0.0 0.0 0.00 0.00 0.00 97 1017.5
20240520063029 11 0 0.0 0.0 0.00 0.00 0.00 97 1017.7
20240520061527 11 0 0.0 0.0 0.00 0.00 0.00 97 1017.9
20240520060032 11 0 0.0 1.6 0.00 0.00 0.00 97 1017.9
20240520054535 11 0 0.0 1.6 0.00 0.00 0.00 97 1018.0
20240520053030 11 0 0.0 1.6 0.00 0.00 0.00 97 1017.9
20240520051550 11 0 0.0 0.0 0.00 0.00 0.00 97 1018.0